[[{"header":{"parameterUnit":"m.s-1","parameterCategory":1,"la1":30.2991,"la2":30.254,"lo1":-89.0895,"lo2":-89.0444,"dy":0.0017,"dx":0.0017,"nx":28,"ny":28,"refTime":"2024-08-24T21:00:00:Z","depth":0,"parameterNumber":2,"parameterNumberName":"U-component_of_WINDS"},"data":[0,0,0,0,0,0,0,0,0,0,0,0,0,0,0,0,0,0,0,0,0,0,0,0,0,0,0,0,0,0,0,0,0,0,0,0,0,0,0,0,0,0,0,0,0,0,0,0,0,0,0,0,0,0,0,0,0,0,-4.8175,-4.8175,0,-4.817,-4.817,-4.817,-4.8036,-4.8033,-4.8029,-4.8026,-4.8022,-4.8025,-4.8028,0,0,0,0,0,0,0,0,0,0,0,0,0,-4.8074,-4.8076,-4.8175,-4.8175,-4.8175,-4.817,-4.817,-4.817,-4.8037,-4.8032,-4.8028,-4.8024,-4.8021,-4.8025,-4.8028,0,0,0,0,0,0,0,0,0,0,0,0,0,-4.8098,-4.8077,-4.8175,-4.8108,-4.8102,-4.817,-4.817,-4.817,-4.8038,-4.8032,-4.8027,-4.8022,-4.802,-4.8024,-4.8029,-4.8161,0,0,-4.8043,-4.8045,0,0,0,0,0,0,0,0,-4.8097,-4.8102,-4.8118,-4.8113,-4.8106,-4.8098,-4.8132,-4.8167,-4.8039,-4.8062,-4.8026,-4.802,-4.8052,-4.8053,-4.8064,-4.8161,-4.8161,-4.8044,-4.8046,-4.8048,-4.805,0,0,0,0,0,0,0,-4.8095,-4.8101,-4.8173,-4.8119,-4.8111,-4.8079,-4.8077,-4.8138,-4.8086,-4.806,-4.805,-4.8051,-4.8047,-4.806,-4.8063,-4.8161,-4.8043,-4.8048,-4.805,-4.8052,-4.8368,-4.8373,0,0,0,0,0,0,-4.8103,-4.8101,-4.8173,-4.8173,-4.8089,-4.8085,-4.8083,-4.8106,-4.8085,-4.8077,-4.8056,-4.8045,-4.8054,-4.8057,-4.8062,-4.8217,-4.8048,-4.8053,-4.8055,-4.8363,-4.8369,-4.8375,0,0,0,0,0,0,-4.8101,-4.811,-4.8174,-4.8134,-4.814,-4.8092,-4.812,-4.8109,-4.8121,-4.8082,-4.8072,-4.8077,-4.805,-4.8055,-4.8138,-4.8215,-4.8055,-4.8059,-4.8356,-4.8365,-4.8372,-4.8527,0,0,0,0,0,0,-4.8099,-4.8111,-4.816,-4.8136,-4.8143,-4.8249,-4.8124,-4.8112,-4.8129,-4.8115,-4.81,-4.8092,-4.8047,-4.8132,-4.8142,-4.8218,-4.8063,-4.8349,-4.836,-4.837,-4.8515,-4.854,-4.8561,0,0,0,0,0,-4.8095,-4.8203,-4.8163,-4.8172,-4.8203,-4.8254,-4.8257,-4.8202,-4.8136,-4.8185,-4.816,-4.8093,-4.8205,-4.8141,-4.8152,-4.8231,-4.8344,-4.8357,-4.8369,-4.8505,-4.8535,-4.8561,0,0,0,0,0,0,-4.8237,-4.8199,-4.8154,-4.8257,-4.826,-4.8231,-4.8292,-4.8236,-4.8258,-4.8244,-4.8175,-4.8173,-4.8266,-4.8256,-4.8186,-4.8359,-4.8262,-4.8278,-4.8362,-4.839,-4.8413,-4.8414,-4.8067,0,0,0,0,0,-4.828,-4.8324,-4.8288,-4.8383,-4.8387,-4.834,-4.836,-4.8317,-4.8317,-4.8318,-4.8299,-4.8302,-4.8338,-4.8363,-4.8394,-4.8513,-4.8509,-4.8572,-4.8595,-4.8614,-4.8629,-4.8694,-4.8722,-4.8417,-4.8417,-4.8416,0,0,-4.837,-4.8355,-4.8386,-4.8412,-4.8408,-4.8457,-4.8341,-4.8397,-4.8432,-4.8326,-4.8403,-4.839,-4.8389,-4.8491,-4.8535,-4.8486,-4.8713,-4.8631,-4.8646,-4.865,-4.8709,-4.8738,-4.8764,-4.8425,-4.8424,-4.8422,0,0,-4.8558,-4.8551,-4.863,-4.8629,-4.8626,-4.8594,-4.8613,-4.8594,-4.8581,-4.8657,-4.8579,-4.862,-4.8683,-4.8687,-4.8697,-4.8889,-4.8828,-4.8901,-4.9022,-4.9085,-4.9109,-4.913,-4.9201,-4.9227,-4.8915,-4.8915,-4.8916,0,-4.8671,-4.8739,-4.8677,-4.8739,-4.8753,-4.8659,-4.8739,-4.8742,-4.875,-4.8763,-4.8707,-4.8785,-4.8778,-4.888,-4.8927,-4.8938,-4.8959,-4.8903,-4.9111,-4.9131,-4.915,-4.9217,-4.9243,-4.8924,-4.8923,-4.8922,-4.8922,0,-4.8879,-4.8928,-4.8992,-4.9002,-4.9023,-4.9094,-4.9044,-4.9073,-4.9029,-4.9004,-4.9083,-4.9071,-4.9099,-4.912,-4.9077,-4.9217,-4.9187,-4.9123,-4.9025,-4.9189,-4.9251,-4.9276,-4.8937,-4.8934,-4.8931,-4.8929,0,0,-4.9156,-4.9132,-4.9157,-4.9161,-4.9152,-4.9189,-4.9256,-4.9283,-4.931,-4.9319,-4.9375,-4.9431,-4.9372,-4.9383,-4.934,-4.9396,-4.9552,-4.9324,-4.9323,-4.9369,-4.9708,-4.9758,-4.9789,-4.9511,-4.9515,-4.9519,-4.9709,0,-4.934,-4.9453,-4.94,-4.9519,-4.9565,-4.9477,-4.9536,-4.9538,-4.9516,-4.9552,-4.9528,-4.957,-4.9487,-4.9494,-4.9545,-4.9522,-4.9619,-4.9507,-4.9564,-4.9567,-4.9569,-4.982,-4.9873,-5.0053,-4.9732,-4.9736,-4.9739,0,-4.9569,-4.9588,-4.9713,-4.9697,-4.9714,-4.9768,-4.9789,-4.9825,-4.9825,-4.9805,-4.982,-4.9764,-4.9831,-4.9733,-4.9824,-4.975,-4.9769,-4.9762,-4.9768,-4.9772,-4.9664,-4.9834,-5.0108,-5.0137,-4.9776,-4.9773,-4.977,0,-4.9762,-4.9819,-4.9901,-4.9907,-4.989,-4.993,-4.9925,-4.992,-4.994,-4.9959,-4.9972,-4.9999,-5.0014,-5.0037,-4.9991,-4.9923,-5.009,-4.9988,-5.0077,-5.0079,-5.0118,-5.0116,-5.0402,-5.0128,-5.0127,-5.0127,-5.0126,0,-4.9974,-5.0055,-4.9988,-5.0039,-5.0126,-5.0065,-5.0154,-5.0139,-5.0136,-5.0183,-5.0109,-5.0155,-5.009,-5.0131,-5.0095,-5.0178,-5.0185,-5.0172,-5.0162,-5.018,-5.0183,-5.0194,-5.0181,-5.0134,-5.0132,-5.0131,-5.013,0,-5.0205,-5.0163,-5.0247,-5.0224,-5.0221,-5.0287,-5.0268,-5.0314,-5.0287,-5.0349,-5.036,-5.0318,-5.0362,-5.0318,-5.036,-5.0336,-5.0448,-5.0418,-5.0448,-5.044,-5.0533,-5.0526,-5.0838,-5.0876,-5.0576,-5.0579,-5.0582,0,-5.0344,-5.0403,-5.0387,-5.0414,-5.0413,-5.0457,-5.0477,-5.0419,-5.0444,-5.045,-5.0497,-5.0535,-5.0562,-5.0637,-5.0611,-5.0643,-5.0615,-5.0722,-5.062,-5.0637,-5.062,-5.0618,-5.0624,-5.0744,-5.0747,-5.075,-5.0753,0,-5.0596,-5.0572,-5.0604,-5.0631,-5.0658,-5.0675,-5.0687,-5.0713,-5.0654,-5.0686,-5.073,-5.0751,-5.0794,-5.0833,-5.0857,-5.0853,-5.0795,-5.0785,-5.0808,-5.0828,-5.0843,-5.0839,-5.0507,-5.0779,-5.0776,-5.0774,-5.0773,-5.0772,-5.0786,-5.0836,-5.0833,-5.0872,-5.0875,-5.0888,-5.0932,-5.0911,-5.0947,-5.0977,-5.094,-5.0996,-5.0996,-5.1023,-5.1026,-5.1069,-5.1024,-5.1056,-5.1065,-5.1075,-5.1089,-5.0835,-5.1073,-5.1072,-5.1071,-5.1071,-5.107,0,-5.1035,-5.103,-5.1066,-5.1086,-5.1117,-5.1058,-5.1069,-5.11,-5.1149,-5.1154,-5.1183,-5.1235,-5.1273,-5.1251,-5.1284,-5.1323,-5.1297,-5.1334,-5.1331,-5.1332,-5.1126,-5.1105,-5.1354,-5.1354,-5.1354,-5.1354,-5.1354,-5.1354,-5.1169,-5.1251,-5.1228,-5.1312,-5.1305,-5.1358,-5.137,-5.1383,-5.1387,-5.1448,-5.148,-5.1465,-5.146,-5.1492,-5.1525,-5.1518,-5.1534,-5.1582,-5.1565,-5.1374,-5.1346,-5.1319,-5.1298,-5.1585,-5.1585,-5.1767,-5.1769,-5.177]},{"header":{"parameterUnit":"m.s-1","parameterCategory":1,"la1":30.2991,"la2":30.254,"lo1":-89.0895,"lo2":-89.0444,"dy":0.0017,"dx":0.0017,"nx":28,"ny":28,"refTime":"2024-08-24T21:00:00:Z","depth":0,"parameterNumber":3,"parameterNumberName":"V-component_of_WINDS"},"data":[0,0,0,0,0,0,0,0,0,0,0,0,0,0,0,0,0,0,0,0,0,0,0,0,0,0,0,0,0,0,0,0,0,0,0,0,0,0,0,0,0,0,0,0,0,0,0,0,0,0,0,0,0,0,0,0,0,0,1.2949,1.2949,0,1.2945,1.2945,1.2945,1.2966,1.2967,1.2968,1.2968,1.2961,1.296,1.2959,0,0,0,0,0,0,0,0,0,0,0,0,0,1.2974,1.2973,1.2949,1.2949,1.2949,1.2945,1.2945,1.2945,1.2966,1.2967,1.2968,1.2969,1.2961,1.296,1.2959,0,0,0,0,0,0,0,0,0,0,0,0,0,1.2966,1.2973,1.2949,1.296,1.296,1.2945,1.2945,1.2945,1.2966,1.2967,1.2968,1.2969,1.2961,1.296,1.2959,1.2932,0,0,1.2955,1.2955,0,0,0,0,0,0,0,0,1.2966,1.2965,1.2958,1.2959,1.296,1.2957,1.2951,1.294,1.2966,1.2964,1.2968,1.2969,1.2959,1.2958,1.2955,1.2932,1.2932,1.2955,1.2954,1.2954,1.2954,0,0,0,0,0,0,0,1.2967,1.2965,1.2947,1.2958,1.2959,1.2963,1.2963,1.2949,1.2956,1.2964,1.2966,1.2965,1.2959,1.2956,1.2955,1.2932,1.2955,1.2954,1.2953,1.2953,1.2886,1.2885,0,0,0,0,0,0,1.2966,1.2965,1.2948,1.2947,1.2965,1.2962,1.2962,1.2957,1.2956,1.2957,1.2964,1.2966,1.2957,1.2956,1.2954,1.2922,1.2954,1.2953,1.2952,1.2887,1.2886,1.2884,0,0,0,0,0,0,1.2967,1.2964,1.2948,1.2957,1.2955,1.2961,1.2955,1.2956,1.2953,1.2956,1.2957,1.2959,1.2958,1.2956,1.2938,1.2922,1.2952,1.2951,1.2888,1.2886,1.2885,1.2857,0,0,0,0,0,0,1.2967,1.2964,1.2955,1.2956,1.2954,1.2932,1.2954,1.2956,1.2951,1.2954,1.2952,1.2953,1.2959,1.2939,1.2936,1.2921,1.295,1.289,1.2887,1.2886,1.286,1.2855,1.2851,0,0,0,0,0,1.2968,1.2947,1.2954,1.2952,1.2943,1.2931,1.293,1.2938,1.295,1.294,1.2942,1.2953,1.2925,1.2937,1.2934,1.2918,1.289,1.2888,1.2886,1.2861,1.2856,1.2851,0,0,0,0,0,0,1.2943,1.2947,1.2956,1.2935,1.2932,1.2935,1.2922,1.2932,1.2925,1.2927,1.2937,1.2936,1.2916,1.2916,1.2929,1.2892,1.291,1.2906,1.2892,1.2887,1.2883,1.2882,1.2949,0,0,0,0,0,1.2935,1.2926,1.293,1.2911,1.291,1.2916,1.2911,1.2918,1.2915,1.2914,1.2915,1.2911,1.2901,1.2895,1.2886,1.2861,1.2859,1.2848,1.2844,1.284,1.2836,1.2821,1.2815,1.2877,1.2877,1.2877,0,0,1.2918,1.292,1.2913,1.2906,1.2905,1.2894,1.2915,1.2903,1.2894,1.2912,1.2894,1.2895,1.2891,1.2869,1.2859,1.2868,1.282,1.2837,1.2834,1.2832,1.2818,1.2812,1.2807,1.2875,1.2875,1.2875,0,0,1.2881,1.2882,1.2866,1.2865,1.2863,1.2868,1.2864,1.2865,1.2866,1.2849,1.2861,1.2851,1.2835,1.2831,1.2827,1.279,1.2799,1.2787,1.2763,1.2748,1.2744,1.2739,1.2724,1.2718,1.2784,1.2784,1.2784,0,1.286,1.2844,1.2856,1.2842,1.2838,1.2856,1.2838,1.2836,1.2831,1.2827,1.2838,1.2817,1.2817,1.2793,1.2783,1.2781,1.2775,1.2786,1.2744,1.2739,1.2736,1.2721,1.2715,1.2782,1.2782,1.2783,1.2783,0,1.2817,1.2807,1.2794,1.2789,1.2784,1.2769,1.2777,1.277,1.2777,1.278,1.2762,1.2762,1.2753,1.2748,1.2755,1.2725,1.273,1.2742,1.276,1.2728,1.2714,1.2708,1.278,1.2781,1.2781,1.2781,0,0,1.2762,1.2765,1.276,1.2757,1.2758,1.2749,1.2734,1.2726,1.2719,1.2716,1.2702,1.2689,1.2699,1.2695,1.2702,1.2689,1.2657,1.2703,1.2703,1.2692,1.2621,1.261,1.2603,1.2664,1.2663,1.2662,1.262,0,1.2724,1.2699,1.2709,1.2683,1.2672,1.2689,1.2676,1.2674,1.2677,1.2667,1.267,1.2659,1.2676,1.2673,1.2662,1.2663,1.2642,1.2667,1.2649,1.2648,1.2647,1.2596,1.2585,1.2545,1.2615,1.2615,1.2614,0,1.2676,1.2671,1.2644,1.2645,1.2641,1.2629,1.2622,1.2614,1.2611,1.2614,1.261,1.2619,1.2604,1.2623,1.2601,1.2617,1.2611,1.2611,1.261,1.2606,1.2627,1.2588,1.2533,1.2526,1.2606,1.2606,1.2607,0,1.2635,1.2622,1.2604,1.2602,1.2603,1.2594,1.2594,1.2593,1.2588,1.2582,1.2578,1.257,1.2565,1.2558,1.2565,1.2579,1.254,1.2561,1.254,1.254,1.2529,1.2529,1.2468,1.253,1.253,1.253,1.253,0,1.259,1.2572,1.2585,1.2573,1.2553,1.2565,1.2545,1.2547,1.2546,1.2534,1.2549,1.2537,1.2548,1.2537,1.2543,1.2522,1.252,1.2521,1.2522,1.2518,1.2517,1.2511,1.2513,1.2529,1.2529,1.2529,1.2529,0,1.2539,1.2548,1.2528,1.2532,1.2533,1.2518,1.252,1.2509,1.2514,1.2498,1.2495,1.2502,1.249,1.2497,1.2485,1.2488,1.246,1.2467,1.2461,1.2461,1.2439,1.244,1.237,1.236,1.2431,1.243,1.243,0,1.2508,1.2495,1.2497,1.2491,1.249,1.248,1.2474,1.2486,1.2479,1.2476,1.2464,1.2454,1.2446,1.2426,1.2428,1.2419,1.2423,1.2399,1.2421,1.2417,1.2419,1.2418,1.2416,1.2394,1.2393,1.2392,1.2392,0,1.2451,1.2456,1.2448,1.2442,1.2435,1.243,1.2426,1.242,1.2432,1.2423,1.2412,1.2405,1.2393,1.2381,1.2373,1.2372,1.2383,1.2385,1.2379,1.2373,1.2369,1.2368,1.2445,1.2386,1.2387,1.2387,1.2387,1.2388,1.2408,1.2396,1.2396,1.2386,1.2385,1.2381,1.237,1.2374,1.2365,1.2356,1.2363,1.2349,1.2346,1.2337,1.2334,1.2322,1.2331,1.2323,1.2321,1.2318,1.2313,1.2374,1.2321,1.2321,1.2321,1.2322,1.2322,0,1.2349,1.235,1.2341,1.2336,1.2328,1.2341,1.2338,1.2329,1.2317,1.2314,1.2306,1.2292,1.2281,1.2284,1.2274,1.2263,1.2268,1.226,1.2259,1.2258,1.2307,1.2312,1.2256,1.2256,1.2256,1.2256,1.2256,1.2256,1.2317,1.2297,1.2302,1.2282,1.2283,1.2269,1.2266,1.2262,1.226,1.2244,1.2235,1.2237,1.2237,1.2227,1.2216,1.2218,1.2212,1.2201,1.2204,1.2249,1.2255,1.2261,1.2265,1.2201,1.2201,1.2155,1.2155,1.2154]}]]